Flag for U.S.A. Weather past 2 weeks in Decatur, Illinois, U.S.A.

Now
62 °F

Sunny.


Feels Like: 62 °F
Forecast: 38 / 60 °F
Wind: 7 mph from North

Location: Decatur Airport


UV Index: 0 (Low)

Visibility: 10 mi


Pressure: 30.08 "Hg

Humidity: 26%

Dew point: 27 °F

Location of DecaturLocation

Historic Weather in Decatur

°F

Decatur temperature yesterday

Maximum temperature yesterday: 66 °F (at 2:54 PM)
Minimum temperature yesterday: 44 °F (at 11:54 PM)
Average temperature yesterday: 57 °F

Past Weeks' High & Low Weather Summary

 TemperatureHumidityPressure
High78 °F (Apr 12, 1:54 PM)93% (Apr 14, 4:58 PM)30.33 "Hg (Apr 14, 4:58 PM)
Low30 °F (Apr 15, 5:54 AM)16% (Apr 11, 3:54 PM)29.43 "Hg (Apr 14, 12:54 AM)
Average55 °F56%30.03 "Hg
* Reported Apr 8 2:54 PM — Apr 23 2:54 PM, Decatur, Weather by CustomWeather, © 2014

Note: Actual official high and low records may vary slightly from our data, if they occured in-between our weather recording intervals... More about our weather records

Advertising

Historic Weather Conditions — Data for Previous 24 hours

 ConditionsComfort  
Time TempWeatherWind HumidityBarometerVisibility
2:54 PM
Apr 23
62 °FSunny.7 mph26%30.08 "Hg10 mi
1:54 PM61 °FSunny.9 mph29%30.10 "Hg10 mi
12:54 PM57 °FSunny.3 mph33%30.13 "Hg10 mi
11:54 AM55 °FSunny.N/A40%30.16 "Hg10 mi
10:54 AM52 °FSunny.9 mph47%30.16 "Hg10 mi
9:54 AM48 °FSunny.8 mph50%30.18 "Hg10 mi
8:54 AM46 °FSunny.9 mph54%30.18 "Hg10 mi
7:54 AM43 °FSunny.12 mph60%30.17 "Hg10 mi
6:54 AM35 °FClear.8 mph78%30.14 "Hg10 mi
5:54 AM33 °FClear.6 mph78%30.12 "Hg10 mi
4:54 AM34 °FClear.6 mph79%30.11 "Hg10 mi
3:54 AM34 °FClear.7 mph79%30.11 "Hg10 mi
2:54 AM37 °FClear.7 mph76%30.08 "Hg10 mi
1:54 AM41 °FClear.13 mph70%30.08 "Hg10 mi
12:54 AM43 °FClear.12 mph68%30.06 "Hg10 mi
11:54 PM
Apr 22
44 °FClear.10 mph65%30.04 "Hg10 mi
10:54 PM48 °FClear.7 mph50%30.01 "Hg10 mi
9:54 PM51 °FClear.8 mph44%30.01 "Hg10 mi
8:54 PM54 °FClear.8 mph38%29.99 "Hg10 mi
7:54 PM57 °FSunny.8 mph36%29.97 "Hg10 mi
6:54 PM63 °FSunny.14 mph27%29.96 "Hg10 mi
5:54 PM64 °FSunny.15 mph27%29.96 "Hg10 mi
4:54 PM65 °FSunny.13 mph27%29.96 "Hg10 mi
3:54 PM65 °FSunny.13 mph26%29.96 "Hg10 mi
Weather by CustomWeather, © 2014

See weather overview